International Skating Union - Official Site

ISU World Cup Stavanger
January 29 - 31, 2016

Draw | Lap Times | Index | World Cup

Referee: Daniel  CABELDUC  (SWE)
Starter: Roland  STEENBECK  (GER)
StartTime: EndTime: Air Temp: Ice Temp: Humidity:
16:44 17:45 17.6℃ -6.1℃ 38%
Result 5000m Men Division A
Rankings as of Jan 31 2016 6:51PM
Rank: No.: Name: Nation: Time: Behind: Points:
1 78 Sven  Kramer NED NED 6:15.71200m - 18.53 - (18.5)
600m - 47.28 - (28.7)
1000m - 1:17.35 - (30.0)
1400m - 1:47.65 - (30.3)
1800m - 2:17.35 - (29.7)
2200m - 2:46.72 - (29.3)
2600m - 3:16.31 - (29.5)
3000m - 3:45.59 - (29.2)
3400m - 4:15.08 - (29.4)
3800m - 4:44.66 - (29.5)
4200m - 5:14.74 - (30.0)
4600m - 5:44.98 - (30.2)
5000m - 6:15.71 - (30.7)
100
2 73 Jorrit  Bergsma NED NED 6:17.59200m - 18.72 - (18.7)
600m - 48.16 - (29.4)
1000m - 1:18.14 - (29.9)
1400m - 1:48.28 - (30.1)
1800m - 2:18.03 - (29.7)
2200m - 2:47.68 - (29.6)
2600m - 3:17.23 - (29.5)
3000m - 3:46.82 - (29.5)
3400m - 4:16.76 - (29.9)
3800m - 4:46.81 - (30.0)
4200m - 5:16.83 - (30.0)
4600m - 5:47.00 - (30.1)
5000m - 6:17.59 - (30.6)
1.88 80
3 10 Ted-Jan  Bloemen CAN CAN 6:18.05200m - 18.72 - (18.7)
600m - 47.48 - (28.7)
1000m - 1:16.97 - (29.4)
1400m - 1:46.94 - (29.9)
1800m - 2:16.97 - (30.0)
2200m - 2:47.09 - (30.1)
2600m - 3:17.31 - (30.2)
3000m - 3:47.37 - (30.0)
3400m - 4:17.42 - (30.0)
3800m - 4:47.59 - (30.1)
4200m - 5:17.71 - (30.1)
4600m - 5:47.90 - (30.1)
5000m - 6:18.05 - (30.1)
2.34 70
4 94 Sverre Lunde  Pedersen NOR NOR 6:20.34200m - 19.15 - (19.1)
600m - 49.07 - (29.9)
1000m - 1:18.97 - (29.9)
1400m - 1:49.04 - (30.0)
1800m - 2:19.07 - (30.0)
2200m - 2:49.22 - (30.1)
2600m - 3:19.30 - (30.0)
3000m - 3:49.38 - (30.0)
3400m - 4:19.36 - (29.9)
3800m - 4:49.47 - (30.1)
4200m - 5:19.46 - (29.9)
4600m - 5:49.57 - (30.1)
5000m - 6:20.34 - (30.7)
4.63 60
5 38 Patrick  Beckert GER GER 6:21.00200m - 19.52 - (19.5)
600m - 49.34 - (29.8)
1000m - 1:19.30 - (29.9)
1400m - 1:49.14 - (29.8)
1800m - 2:19.15 - (30.0)
2200m - 2:49.30 - (30.1)
2600m - 3:19.51 - (30.2)
3000m - 3:49.60 - (30.0)
3400m - 4:19.86 - (30.2)
3800m - 4:50.23 - (30.3)
4200m - 5:20.58 - (30.3)
4600m - 5:50.74 - (30.1)
5000m - 6:21.00 - (30.2)
5.29 50
6 4 Bart  Swings BEL BEL 6:21.66200m - 18.97 - (18.9)
600m - 47.88 - (28.9)
1000m - 1:17.55 - (29.6)
1400m - 1:47.29 - (29.7)
1800m - 2:17.16 - (29.8)
2200m - 2:47.19 - (30.0)
2600m - 3:17.50 - (30.3)
3000m - 3:47.82 - (30.3)
3400m - 4:18.22 - (30.4)
3800m - 4:48.84 - (30.6)
4200m - 5:19.52 - (30.6)
4600m - 5:50.50 - (30.9)
5000m - 6:21.66 - (31.1)
5.95 45
7 75 Douwe  de Vries NED NED 6:22.33200m - 18.73 - (18.7)
600m - 48.19 - (29.4)
1000m - 1:18.33 - (30.1)
1400m - 1:48.63 - (30.3)
1800m - 2:18.87 - (30.2)
2200m - 2:49.19 - (30.3)
2600m - 3:19.39 - (30.2)
3000m - 3:49.46 - (30.0)
3400m - 4:19.75 - (30.2)
3800m - 4:50.34 - (30.5)
4200m - 5:21.15 - (30.8)
4600m - 5:51.77 - (30.6)
5000m - 6:22.33 - (30.5)
6.62 40
8 87 Håvard  Bøkko NOR NOR 6:23.51200m - 18.70 - (18.7)
600m - 48.35 - (29.6)
1000m - 1:18.56 - (30.2)
1400m - 1:49.01 - (30.4)
1800m - 2:19.15 - (30.1)
2200m - 2:49.50 - (30.3)
2600m - 3:19.41 - (29.9)
3000m - 3:49.45 - (30.0)
3400m - 4:19.79 - (30.3)
3800m - 4:50.34 - (30.5)
4200m - 5:21.26 - (30.9)
4600m - 5:52.31 - (31.0)
5000m - 6:23.51 - (31.2)
7.80 35
9 114 Aleksandr  Rumyantsev RUS RUS 6:25.49 (0) 200m - 19.39 - (19.3)
600m - 49.82 - (30.4)
1000m - 1:20.39 - (30.5)
1400m - 1:50.82 - (30.4)
1800m - 2:21.31 - (30.4)
2200m - 2:51.72 - (30.4)
2600m - 3:22.14 - (30.4)
3000m - 3:52.39 - (30.2)
3400m - 4:22.73 - (30.3)
3800m - 4:52.73 - (30.0)
4200m - 5:23.03 - (30.3)
4600m - 5:53.91 - (30.8)
5000m - 6:25.49 - (31.5)
9.78 30
9 44 Andrea  Giovannini ITA ITA 6:25.49 (0) 200m - 18.76 - (18.7)
600m - 48.61 - (29.8)
1000m - 1:18.99 - (30.3)
1400m - 1:49.49 - (30.5)
1800m - 2:19.91 - (30.4)
2200m - 2:50.19 - (30.2)
2600m - 3:20.51 - (30.3)
3000m - 3:50.93 - (30.4)
3400m - 4:21.39 - (30.4)
3800m - 4:51.95 - (30.5)
4200m - 5:22.79 - (30.8)
4600m - 5:53.95 - (31.1)
5000m - 6:25.49 - (31.5)
9.78 30
11 39 Moritz  Geisreiter GER GER 6:29.38200m - 19.22 - (19.2)
600m - 49.26 - (30.0)
1000m - 1:19.79 - (30.5)
1400m - 1:50.63 - (30.8)
1800m - 2:21.43 - (30.8)
2200m - 2:52.09 - (30.6)
2600m - 3:22.95 - (30.8)
3000m - 3:53.78 - (30.8)
3400m - 4:24.65 - (30.8)
3800m - 4:55.65 - (31.0)
4200m - 5:26.93 - (31.2)
4600m - 5:58.28 - (31.3)
5000m - 6:29.38 - (31.1)
13.67 21
12 9 Jordan  Belchos CAN CAN 6:30.79200m - 18.94 - (18.9)
600m - 48.09 - (29.1)
1000m - 1:18.01 - (29.9)
1400m - 1:48.05 - (30.0)
1800m - 2:18.31 - (30.2)
2200m - 2:49.02 - (30.7)
2600m - 3:19.86 - (30.8)
3000m - 3:51.08 - (31.2)
3400m - 4:22.77 - (31.6)
3800m - 4:54.70 - (31.9)
4200m - 5:26.74 - (32.0)
4600m - 5:58.61 - (31.8)
5000m - 6:30.79 - (32.1)
15.08 18
13 116 Yevgeny  Seryaev RUS RUS 6:31.55200m - 19.55 - (19.5)
600m - 49.35 - (29.8)
1000m - 1:19.46 - (30.1)
1400m - 1:49.26 - (29.8)
1800m - 2:19.32 - (30.0)
2200m - 2:49.14 - (29.8)
2600m - 3:19.53 - (30.3)
3000m - 3:50.14 - (30.6)
3400m - 4:21.25 - (31.1)
3800m - 4:52.84 - (31.5)
4200m - 5:25.39 - (32.5)
4600m - 5:58.22 - (32.8)
5000m - 6:31.55 - (33.3)
15.84 16
14 59 Ryosuke  Tsuchiya JPN JPN 6:37.09200m - 18.87 - (18.8)
600m - 48.90 - (30.0)
1000m - 1:19.91 - (31.0)
1400m - 1:50.74 - (30.8)
1800m - 2:21.73 - (30.9)
2200m - 2:52.96 - (31.2)
2600m - 3:24.66 - (31.7)
3000m - 3:56.05 - (31.3)
3400m - 4:27.65 - (31.6)
3800m - 4:59.46 - (31.8)
4200m - 5:31.76 - (32.3)
4600m - 6:04.25 - (32.4)
5000m - 6:37.09 - (32.8)
21.38 14
15 85 Arjan  Stroetinga NED NED 6:42.68200m - 18.96 - (18.9)
600m - 48.12 - (29.1)
1000m - 1:18.62 - (30.5)
1400m - 1:48.89 - (30.2)
1800m - 2:19.17 - (30.2)
2200m - 2:49.42 - (30.2)
2600m - 3:19.91 - (30.4)
3000m - 3:50.42 - (30.5)
3400m - 4:21.28 - (30.8)
3800m - 4:59.80 - (38.5)
4200m - 5:34.90 - (35.1)
4600m - 6:08.74 - (33.8)
5000m - 6:42.68 - (33.9)
26.97 12
16 31 Viktor-Hald  Thorup DEN DEN 6:59.48200m - 19.64 - (19.6)
600m - 49.97 - (30.3)
1000m - 1:20.10 - (30.1)
1400m - 1:50.80 - (30.7)
1800m - 2:21.41 - (30.6)
2200m - 2:52.27 - (30.8)
2600m - 3:23.42 - (31.1)
3000m - 3:55.50 - (32.0)
3400m - 4:29.19 - (33.6)
3800m - 5:05.48 - (36.2)
4200m - 5:43.08 - (37.6)
4600m - 6:21.15 - (38.0)
5000m - 6:59.48 - (38.3)
43.77 10